Wind_Speed
11 12 11 9 7 5 5 4 5 7 7 8 9 11 13 14 15 16 18 19 21 23 26 29 32 35 37 39 40 40 41 42 42 43 44 45 45 44 44 43 42 42 42 42
11 11 11 9 8 7 6 6 7 8 8 8 10 11 12 13 15 17 18 20 20 21 24 27 30 33 36 37 39 40 42 43 44 43 44 44 44 44 44 43 42 41 42 42
10 10 10 10 10 8 8 8 8 8 9 10 11 12 13 13 14 15 17 19 21 23 25 26 28 30 33 35 38 40 41 42 43 43 43 43 43 43 43 43 43 42 43 43
9 10 10 10 10 10 9 10 10 10 11 12 13 13 14 15 16 17 17 18 21 23 25 27 28 29 32 34 35 38 39 40 40 41 42 42 42 43 43 44 43 43 42 43
9 10 10 11 11 11 11 11 12 12 12 13 14 15 15 17 18 19 19 20 21 23 24 27 29 30 32 34 35 36 37 38 39 40 40 41 41 41 42 43 43 42 41 41
9 10 11 12 13 13 13 13 14 14 14 15 15 15 16 18 19 21 22 23 23 24 26 27 28 30 31 33 35 36 37 37 38 39 39 39 40 40 41 42 43 42 42 42
8 10 11 13 14 15 15 16 16 16 16 17 17 17 18 20 21 23 23 24 25 26 27 28 29 30 31 32 33 35 36 37 38 38 38 38 39 40 40 41 41 41 42 42
9 10 12 14 15 17 17 18 18 18 19 19 18 18 19 21 22 24 25 26 27 29 30 29 30 30 30 31 32 33 34 35 36 36 37 37 37 38 39 40 40 40 40 40
10 11 13 15 16 17 19 20 20 21 21 21 20 20 21 22 23 24 25 26 28 30 31 31 31 31 31 31 31 32 33 34 34 35 36 37 37 38 38 39 39 40 40 39
11 12 14 15 17 18 20 21 22 23 22 22 22 22 23 24 25 25 25 27 28 30 31 32 32 33 32 32 32 32 33 33 33 34 35 35 36 37 38 39 39 40 40 40
12 14 15 17 18 20 21 22 23 24 24 24 23 24 26 27 27 27 27 27 28 28 29 30 31 32 33 32 32 32 33 34 34 34 34 34 35 35 36 37 38 38 38 38
14 16 17 18 19 21 22 23 24 25 26 26 26 27 28 29 29 28 28 27 27 27 28 28 30 31 31 32 33 33 33 33 34 34 34 35 35 35 36 37 38 39 38 38
15 17 18 19 20 21 22 24 26 27 28 28 28 28 29 30 30 29 28 27 26 26 27 28 29 30 31 31 32 32 33 34 34 35 35 35 35 36 37 38 39 39 39 39
17 19 20 21 22 22 24 25 27 29 29 29 29 30 31 31 30 29 29 28 26 26 26 27 28 29 30 30 31 32 33 34 35 35 36 36 36 37 37 38 38 39 39 39
19 20 21 22 23 24 25 27 29 30 31 31 30 31 31 31 31 30 29 28 27 26 26 27 28 30 30 30 31 32 33 34 35 36 37 37 37 38 38 38 38 38 39 39
21 22 23 24 24 25 26 28 30 31 32 32 31 32 32 32 32 31 30 29 28 27 27 27 28 28 29 30 31 32 33 34 34 35 36 37 37 37 37 38 38 38 38 39
23 24 25 25 26 27 28 29 31 32 32 33 33 33 33 33 32 32 31 30 29 28 28 28 29 29 29 29 30 30 31 33 34 34 35 35 36 36 36 37 37 37 38 38
24 25 26 26 27 29 30 31 33 33 34 34 34 34 34 34 34 32 31 31 30 29 29 30 30 30 30 30 31 30 31 31 32 32 33 34 35 35 36 37 37 37 37 36
26 26 26 27 29 30 32 33 34 35 35 36 36 36 36 35 35 33 32 31 31 30 30 30 31 31 30 30 31 31 31 31 31 31 32 32 33 34 34 35 35 35 35 35
27 27 28 29 31 32 33 34 35 36 36 37 37 37 37 36 35 34 34 33 32 31 31 30 30 30 30 30 30 31 31 30 30 30 30 31 32 33 33 33 34 34 34 34
28 29 30 31 32 34 35 35 36 37 37 38 38 38 38 37 37 36 35 34 33 32 31 30 29 29 29 29 30 30 30 30 31 30 30 30 30 31 32 32 33 33 34 34
30 31 32 33 34 35 36 37 38 38 39 39 39 39 39 38 38 37 35 34 33 32 31 30 28 27 27 27 27 28 28 29 29 30 30 30 30 30 30 31 32 32 33 33
31 32 34 35 35 36 37 38 39 39 40 40 40 40 39 39 38 37 35 34 33 31 30 29 28 26 26 26 26 26 27 27 27 28 28 28 28 29 30 30 31 32 32 33
33 34 35 36 37 38 39 39 40 41 41 41 41 40 39 38 37 36 35 33 32 31 30 28 27 26 26 26 25 25 26 26 26 27 27 27 27 28 29 30 31 31 32 33
35 35 36 37 38 39 40 41 41 42 42 42 41 40 38 37 36 35 34 33 32 30 28 27 26 26 25 25 25 25 25 26 26 26 27 27 27 28 29 29 30 31 31 32
36 36 37 39 40 41 41 42 42 42 42 41 40 38 37 37 36 35 34 32 31 30 28 27 26 25 25 25 25 25 25 25 26 26 26 26 27 28 28 29 29 30 31 31
37 38 39 40 41 42 42 42 42 41 41 40 38 37 37 36 35 33 32 32 31 30 28 27 25 25 24 24 24 24 24 24 25 25 25 26 26 27 28 28 29 29 30 30
Wind_Direction
30 30 27 26 20 3 342 319 296 282 281 277 275 274 271 268 262 260 259 258 256 252 249 245 243 244 246 247 247 248 248 248 248 250 251 251 252 254 254 253 255 256 256 256
26 26 23 21 16 9 356 336 319 300 287 282 282 281 275 267 264 263 261 260 258 254 249 246 245 246 247 248 249 250 250 249 250 251 252 252 253 254 254 254 254 255 256 257
22 21 19 15 9 2 352 341 328 318 301 293 290 283 280 274 267 264 260 255 255 254 250 248 247 246 246 247 249 251 251 251 252 252 253 253 253 254 254 253 253 255 255 256
21 18 18 11 4 360 354 345 337 326 312 300 295 287 280 276 273 268 265 260 257 255 252 250 251 250 248 249 250 251 252 253 253 253 254 254 254 253 253 253 254 255 256 256
18 16 13 6 360 353 349 342 338 332 320 308 299 291 283 277 273 271 268 266 263 258 255 253 254 254 252 252 252 252 253 253 253 253 253 253 252 252 252 252 253 254 255 256
11 9 6 2 358 351 346 340 333 327 322 316 307 297 290 282 276 273 270 269 266 263 258 257 257 257 256 255 255 254 254 254 253 253 252 252 251 252 251 252 253 254 255 257
2 1 359 356 353 350 346 342 333 327 322 319 311 304 300 292 284 279 273 269 266 264 262 260 260 260 260 259 258 257 256 255 255 253 253 253 252 252 251 252 252 253 255 256
351 351 348 348 348 346 343 339 333 328 322 318 314 308 305 300 293 284 277 272 267 264 262 261 261 261 261 260 259 257 256 255 255 253 252 252 251 251 252 252 252 253 254 255
344 345 344 343 344 344 342 339 335 331 324 318 313 310 308 305 301 293 283 278 272 266 262 261 261 262 262 261 260 258 255 254 254 253 252 252 251 251 251 252 252 253 254 255
334 337 337 337 338 339 339 337 335 333 327 321 315 311 310 308 305 299 290 285 279 270 264 262 260 260 261 261 261 259 257 254 253 253 253 252 251 251 251 250 252 253 254 254
325 328 330 331 333 334 336 336 334 332 328 323 317 314 312 309 306 302 297 290 284 275 268 264 262 260 261 262 261 259 257 256 255 254 253 252 252 251 251 250 250 252 253 253
317 323 326 327 328 330 332 333 333 332 329 325 320 317 315 312 309 306 301 294 286 279 272 268 265 262 261 261 259 258 256 256 255 254 253 252 252 252 252 251 251 253 254 254
314 319 322 324 324 326 329 330 331 330 328 325 322 319 318 316 313 309 306 300 289 280 273 270 267 264 264 262 259 258 257 256 255 255 254 254 254 253 252 252 251 251 252 254
311 315 318 320 321 323 325 327 329 329 328 325 321 319 318 318 316 312 308 304 296 284 275 271 268 266 266 264 261 259 259 258 256 255 255 254 253 252 252 252 252 252 252 253
309 312 314 317 319 320 322 324 325 327 327 326 323 320 319 318 315 313 309 305 298 289 282 275 272 269 267 267 265 261 260 260 258 256 255 254 253 253 252 252 253 254 254 254
306 309 312 314 316 318 320 322 323 324 325 324 323 321 320 318 315 312 309 304 298 292 288 283 278 274 270 268 267 264 262 261 259 258 256 254 253 253 253 253 254 254 254 255
304 307 309 312 313 316 319 321 322 324 324 324 322 321 319 318 315 312 309 304 299 293 288 286 282 277 273 271 269 267 263 261 260 259 257 255 254 254 253 254 254 255 255 256
304 306 308 310 313 315 317 318 320 321 322 323 322 320 319 317 315 312 308 305 301 296 290 286 284 280 276 272 270 267 265 263 261 259 258 256 256 255 254 254 254 254 256 256
302 305 307 309 312 315 316 317 318 319 320 321 320 319 318 316 314 312 308 305 303 300 293 288 285 282 278 275 272 269 267 265 263 261 259 258 256 255 255 254 254 254 255 256
301 303 306 309 312 314 315 316 317 318 319 319 319 318 317 315 313 311 308 306 304 302 298 292 287 283 279 276 273 270 267 266 264 263 261 259 258 257 256 255 255 255 256 256
299 302 305 308 311 313 315 316 317 318 318 318 317 316 315 314 312 311 308 305 304 302 299 295 290 285 281 277 273 271 268 266 265 263 262 262 260 258 256 255 255 256 256 257
299 302 305 307 310 312 314 315 316 317 317 317 316 316 315 313 312 311 309 306 304 303 301 296 292 287 282 278 273 270 268 266 264 263 262 262 261 259 256 256 256 256 257 258
298 301 304 307 309 311 313 314 316 316 316 316 316 316 314 313 312 311 310 307 305 303 301 297 292 288 283 278 275 271 268 266 264 262 261 262 261 259 258 257 258 258 259 259
298 300 303 305 308 310 312 314 315 315 315 316 316 315 314 313 312 311 310 308 306 305 302 297 290 286 284 280 276 273 270 268 265 262 261 261 261 261 260 260 260 260 261 260
297 300 303 305 307 309 311 312 313 314 315 315 315 315 314 313 312 311 311 309 307 305 302 297 291 286 283 280 277 274 271 269 267 264 262 262 262 262 262 262 262 262 262 262
298 300 302 304 307 308 310 311 312 313 314 314 314 314 314 313 312 311 310 309 308 306 302 298 292 287 284 280 277 276 272 269 267 265 264 264 264 264 264 263 264 265 264 264
298 300 302 304 306 307 309 310 311 312 312 312 312 313 313 313 312 311 310 310 309 306 302 298 292 288 284 281 278 276 274 272 270 269 268 267 266 266 265 265 266 265 265 264
Height
5638 5635 5633 5631 5629 5627 5626 5625 5624 5624 5623 5622 5621 5621 5620 5620 5620 5621 5621 5622 5623 5624 5626 5628 5631 5634 5638 5641 5644 5648 5651 5654 5657 5660 5663 5666 5669 5671 5674 5677 5680 5682 5685 5687
5638 5635 5633 5631 5629 5627 5625 5624 5623 5621 5621 5620 5618 5617 5616 5616 5615 5616 5616 5617 5618 5619 5620 5622 5624 5626 5629 5632 5635 5638 5641 5644 5647 5649 5652 5655 5657 5660 5662 5665 5668 5671 5673 5676
5638 5635 5634 5632 5629 5627 5625 5623 5621 5620 5619 5617 5616 5614 5612 5611 5611 5610 5610 5611 5612 5613 5614 5615 5617 5619 5621 5623 5626 5628 5631 5633 5636 5638 5640 5643 5645 5648 5651 5654 5656 5659 5661 5664
5637 5636 5633 5634 5628 5626 5624 5621 5619 5617 5615 5613 5612 5610 5608 5607 5606 5605 5605 5605 5606 5606 5607 5608 5609 5611 5612 5614 5616 5618 5620 5622 5624 5626 5629 5631 5633 5636 5638 5641 5644 5647 5649 5652
5636 5634 5632 5631 5627 5624 5622 5620 5617 5614 5612 5610 5607 5606 5604 5602 5601 5600 5599 5599 5599 5599 5599 5600 5602 5603 5604 5605 5607 5608 5610 5611 5613 5615 5617 5619 5621 5624 5627 5630 5632 5635 5638 5640
5635 5633 5631 5630 5626 5622 5621 5618 5615 5611 5609 5606 5603 5601 5600 5597 5595 5594 5593 5593 5592 5592 5592 5593 5593 5594 5595 5596 5597 5598 5599 5600 5602 5604 5606 5608 5610 5612 5615 5618 5621 5623 5625 5628
5633 5631 5630 5627 5623 5621 5619 5617 5611 5608 5605 5601 5598 5596 5594 5591 5589 5587 5586 5585 5585 5584 5584 5584 5585 5585 5586 5586 5587 5587 5588 5590 5591 5593 5595 5597 5599 5601 5604 5607 5609 5612 5614 5617
5631 5630 5630 5625 5621 5619 5616 5611 5607 5603 5600 5597 5593 5590 5588 5585 5582 5580 5578 5577 5576 5575 5575 5575 5575 5576 5576 5576 5577 5577 5578 5579 5580 5582 5584 5586 5588 5590 5593 5595 5598 5600 5602 5605
5630 5630 5625 5622 5619 5615 5611 5607 5603 5599 5595 5591 5588 5585 5582 5579 5575 5572 5570 5568 5566 5565 5565 5565 5565 5566 5566 5566 5566 5567 5567 5568 5570 5571 5573 5575 5577 5579 5582 5584 5586 5588 5591 5593
5626 5624 5622 5618 5615 5612 5608 5604 5599 5594 5590 5585 5582 5579 5575 5572 5568 5565 5562 5559 5556 5555 5554 5555 5555 5556 5556 5556 5556 5557 5557 5559 5560 5561 5563 5565 5566 5568 5571 5573 5575 5577 5579 5581
5622 5620 5617 5614 5611 5608 5604 5599 5595 5590 5585 5580 5576 5573 5569 5564 5560 5556 5553 5550 5546 5544 5544 5544 5544 5545 5545 5546 5546 5547 5547 5548 5550 5551 5553 5554 5556 5558 5560 5562 5564 5566 5568 5570
5619 5616 5614 5611 5607 5603 5599 5595 5590 5585 5580 5575 5571 5566 5562 5557 5552 5548 5544 5540 5537 5536 5535 5534 5534 5534 5535 5535 5536 5537 5537 5538 5539 5541 5542 5544 5546 5547 5549 5551 5552 5554 5557 5559
5614 5611 5608 5605 5602 5598 5594 5590 5585 5580 5575 5570 5565 5560 5555 5550 5545 5540 5536 5532 5529 5527 5526 5525 5524 5524 5524 5525 5525 5526 5527 5528 5529 5530 5532 5533 5534 5536 5538 5540 5541 5543 5545 5547
5608 5606 5603 5600 5596 5593 5589 5584 5579 5574 5569 5564 5558 5553 5548 5543 5538 5533 5528 5524 5521 5518 5517 5516 5515 5515 5514 5514 5515 5515 5516 5517 5518 5519 5520 5522 5523 5525 5526 5528 5530 5531 5533 5535
5603 5600 5597 5594 5590 5586 5582 5578 5573 5568 5562 5557 5551 5546 5541 5535 5530 5525 5521 5517 5513 5510 5508 5507 5506 5505 5504 5504 5504 5504 5505 5506 5506 5507 5508 5510 5512 5513 5515 5516 5518 5520 5521 5523
5596 5593 5590 5587 5584 5580 5575 5571 5566 5561 5555 5550 5544 5539 5534 5528 5523 5518 5513 5509 5505 5503 5500 5498 5496 5495 5494 5494 5493 5493 5493 5494 5494 5495 5496 5497 5499 5501 5502 5504 5506 5508 5509 5511
5589 5586 5583 5580 5576 5572 5568 5564 5559 5554 5548 5543 5537 5531 5526 5520 5515 5510 5505 5501 5497 5494 5492 5489 5487 5485 5484 5483 5483 5482 5482 5482 5483 5483 5484 5485 5487 5488 5490 5492 5494 5496 5497 5499
5582 5579 5576 5573 5569 5565 5561 5556 5551 5546 5540 5535 5529 5524 5518 5512 5507 5502 5497 5493 5489 5485 5482 5480 5477 5475 5474 5473 5472 5472 5471 5471 5472 5472 5473 5474 5475 5477 5478 5480 5482 5484 5485 5487
5574 5571 5568 5564 5561 5557 5552 5548 5542 5537 5532 5527 5521 5515 5509 5504 5498 5493 5488 5484 5480 5476 5473 5470 5467 5465 5463 5462 5461 5461 5460 5460 5461 5461 5462 5462 5463 5465 5467 5468 5470 5472 5473 5475
5566 5563 5559 5556 5552 5548 5544 5539 5534 5528 5523 5518 5512 5506 5500 5495 5489 5484 5479 5474 5470 5466 5463 5459 5457 5455 5453 5451 5450 5450 5450 5450 5450 5450 5451 5452 5453 5454 5455 5457 5459 5460 5462 5463
5557 5554 5551 5547 5543 5539 5534 5530 5524 5519 5514 5508 5502 5497 5491 5485 5480 5474 5469 5465 5461 5456 5453 5449 5446 5444 5442 5441 5440 5439 5439 5439 5440 5440 5441 5441 5442 5443 5444 5446 5447 5449 5450 5452
5548 5545 5542 5538 5534 5530 5525 5520 5515 5509 5504 5498 5493 5487 5481 5475 5470 5464 5459 5455 5451 5446 5443 5439 5437 5434 5432 5431 5430 5429 5429 5429 5429 5430 5430 5431 5431 5432 5433 5435 5436 5438 5439 5440
5538 5535 5532 5528 5524 5520 5515 5510 5505 5499 5494 5488 5483 5477 5471 5465 5459 5455 5450 5445 5441 5437 5433 5430 5427 5425 5423 5422 5421 5420 5419 5419 5419 5419 5420 5421 5421 5422 5423 5424 5425 5427 5428 5429
5528 5525 5522 5518 5514 5510 5505 5500 5494 5489 5483 5478 5472 5466 5460 5455 5449 5444 5440 5435 5431 5427 5424 5421 5418 5416 5414 5413 5412 5411 5410 5410 5410 5410 5411 5411 5412 5412 5413 5414 5415 5416 5417 5417
5518 5515 5511 5508 5503 5499 5494 5489 5483 5478 5473 5467 5461 5456 5450 5445 5440 5435 5430 5426 5422 5418 5415 5411 5409 5407 5405 5404 5403 5402 5402 5401 5401 5401 5402 5402 5402 5403 5403 5404 5405 5405 5406 5406
5507 5504 5500 5496 5492 5488 5483 5478 5472 5467 5461 5456 5451 5445 5440 5435 5430 5426 5421 5417 5413 5409 5406 5403 5400 5398 5396 5395 5394 5393 5393 5392 5392 5392 5392 5393 5393 5393 5394 5394 5394 5395 5395 5396
5496 5493 5489 5485 5481 5476 5471 5466 5461 5456 5451 5445 5440 5435 5430 5426 5421 5417 5412 5408 5404 5400 5397 5394 5391 5389 5388 5386 5385 5385 5384 5384 5384 5383 5384 5384 5384 5384 5384 5384 5385 5385 5385 5385